Home   Weather   Bremerhaven   Past weeks

Flag for Germany Past Weather in Bremerhaven, Bremen, Germany — Yesterday and Last 2 Weeks

Now
37 °F

Chilly.


Feels Like: 30 °F
Forecast: 42 / 47 °F
Wind: 12 mph from West

Location: Nordholz

Current Time: Feb 25, 2017 at 1:43:23 am

Latest Report: Feb 25, 2017 at 12:20 am


Visibility: N/A

Pressure: 30.01 "Hg

Humidity: 87%

Dew Point: 34 °F

Location of BremerhavenLocation

Past Weather in Bremerhaven — Graph

°F

Bremerhaven Temperature Yesterday

Maximum temperature yesterday: 43 °F (at 1:20 pm)
Minimum temperature yesterday: 36 °F (at 1:20 am)
Average temperature yesterday: 38 °F

High & Low Weather Summary for the Past Weeks

 TemperatureHumidityPressure
High52 °F (Feb 15, 3:20 pm)100% (Feb 16, 11:20 am)30.63 "Hg (Feb 16, 11:20 am)
Low19 °F (Feb 14, 3:20 am)44% (Feb 15, 3:20 pm)28.91 "Hg (Feb 23, 8:20 pm)
Average37 °F85%30.08 "Hg
* Reported Feb 10 12:20 am — Feb 25 12:20 am, Bremerhaven, Weather by CustomWeather, © 2017

Note: Actual official high and low records may vary slightly from our data, if they occured in-between our weather recording intervals... More about our weather records

Advertising

Bremerhaven Weather History for the Previous 24 Hours

Scroll right to see more
 ConditionsComfort  
Time TempWeatherWind HumidityBarometerVisibility
12:20 am
Sat, Feb 25
37 °FChilly.12 mph87%30.01 "HgN/A
11:20 pm
Fri, Feb 24
37 °FChilly.10 mph87%30.01 "HgN/A
10:20 pm36 °FChilly.10 mph93%30.01 "HgN/A
9:20 pm36 °FPassing clouds.12 mph87%29.98 "HgN/A
8:20 pm36 °FPassing clouds.16 mph87%29.98 "HgN/A
7:20 pm37 °FPassing clouds.14 mph81%29.95 "HgN/A
6:09 pm37 °FSprinkles. Passing clouds.17 mph81%29.92 "HgN/A
5:20 pm37 °FScattered showers. Scattered clouds.20 mph75%29.89 "HgN/A
5:03 pm39 °FScattered showers. Scattered clouds.20 mph75%29.89 "HgN/A
4:20 pm41 °FScattered showers. Scattered clouds.18 mph76%29.86 "HgN/A
3:20 pm41 °FPassing clouds.18 mph76%29.83 "HgN/A
2:20 pm43 °FPassing clouds.21 mph71%29.83 "HgN/A
1:20 pm43 °FPassing clouds.18 mph71%29.80 "HgN/A
12:20 pm41 °FPassing clouds.16 mph70%29.80 "HgN/A
11:20 am39 °FPassing clouds.17 mph75%29.77 "HgN/A
10:20 am41 °FPassing clouds.14 mph70%29.74 "HgN/A
9:20 am39 °FPassing clouds.14 mph65%29.68 "HgN/A
8:20 am36 °FPassing clouds.12 mph75%29.62 "HgN/A
7:20 am36 °FPassing clouds.17 mph81%29.56 "HgN/A
6:20 am37 °FPassing clouds.17 mph87%29.50 "HgN/A
5:20 am39 °FSprinkles. Partly cloudy.14 mph87%29.45 "HgN/A
4:20 am37 °FPartly cloudy.21 mph81%29.39 "HgN/A
3:20 am37 °FLight rain. Passing clouds.25 mph87%29.30 "HgN/A
2:20 am37 °FPassing clouds.28 mph87%29.21 "HgN/A
1:20 am36 °FOvercast.26 mph93%29.12 "HgN/A
Weather by CustomWeather, © 2017

See weather overviewHow to use our weather pages